Location: Leo
(52.0556°N, 112.3605°W)
Time: 10:44:15
(UTC+00:00)

FO-29 - Pass Details

Date: 08 December 2023
Orbit: 799 x 1322 km, 98.6° (Epoch: 01 March)

Event Time Altitude Azimuth Distance (km) Brightness Sun altitude
Rises 13:26:05 0° 12° (NNE) 4,122 12.7 -17.0°
Reaches altitude 10° 13:29:48 10° 353° (N) 3,232 12.0 -16.5°
Maximum altitude 13:34:02 16° 319° (NW) 2,832 11.4 -15.8°
Enters shadow 13:34:21 16° 316° (NW) 2,839 11.4 -15.8°
